Location: Camaret
(48.2753°N, 4.5961°W)
Time: 04:45:57
(UTC+00:00)

X-37B - Pass Details

Date: 27 January 2021
Orbit: 383 x 391 km, 45.0° (Epoch: 27 February)

Event Time Altitude Azimuth Distance (km) Brightness Sun altitude
Rises 18:40:37 0° 269° (W) 2,273 6.3 -15.0°
Reaches altitude 10° 18:42:45 10° 261° (W) 1,419 4.8 -15.4°
Maximum altitude 18:45:46 39° 191° (S) 598 1.6 -15.9°
Enters shadow 18:47:08 25° 138° (SE) 834 1.9 -16.1°
